Weather History for Chihuahua, Mexico

Change the Weather History Date:

Sunday, September 22, 2013

  Actual Average Record
Temperature  
Mean Temperature 66 °F -  
Max Temperature 78 °F 80 °F 95 °F (1998)
Min Temperature 54 °F 50 °F 48 °F (2008)
Cooling Degree Days 1    
Growing Degree Days 16 (Base 50)    
Moisture  
Dew Point 54 °F    
Average Humidity 65    
Maximum Humidity 100    
Minimum Humidity 42    
Precipitation  
Precipitation 0.00 in - - ()
Sea Level Pressure  
Sea Level Pressure 29.87 in    
Wind  
Wind Speed 4 mph ()    
Max Wind Speed 9 mph    
Max Gust Speed -    
Visibility 9.1 miles    
Events      
Averages and records for this station are not official NWS values.
T = Trace of Precipitation, MM = Missing Value Source: Averaged Metar Reports

Daily Weather History Graph

Daily Weather History Graph

Search for Another Location

Airport:

Trip Planner

Search our weather history database for the weather conditions in past years. The results will help you decide how hot, cold, wet, or windy it might be!

Date:

Astronomy

Sep. 22, 2013 Rise Set
Actual Time 6:52 AM MDT 6:59 PM MDT
Civil Twilight 6:28 AM MDT 7:23 PM MDT
Nautical Twilight 6:01 AM MDT 7:50 PM MDT
Astronomical Twilight 5:33 AM MDT 8:18 PM MDT
Moon 9:12 PM MDT (9/22) 9:56 AM MDT (9/22)
Length of Visible Light 12h 54m
Length of Day
12h 07m
Waning Gibbous, 88% of the Moon is Illuminated
Sep 22
Waning Gibbous
Sep 26
Last Quarter
Oct 4
New
Oct 11
First Quarter
Oct 18
Full

Hourly Weather History & Observations

Time (MDT) Temp. Dew Point Humidity Pressure Visibility Wind Dir Wind Speed Gust Speed Precip Events Conditions
4:40 AM 53.6 °F 50.0 °F 88% 30.02 in 10.0 mi SSW 5.8 mph - N/A   Clear
5:40 AM 50.0 °F 50.0 °F 100% 29.88 in 10.0 mi South 6.9 mph - N/A   Clear
5:47 AM 56 °F 54 °F 89% 29.67 in 1 mi East 2.2 mph - -  
6:40 AM 48.2 °F 48.2 °F 100% 30.02 in 10.0 mi SSE 5.8 mph - N/A   Clear
7:40 AM 51.8 °F 51.8 °F 100% 30.03 in 10.0 mi Calm Calm - N/A   Clear
8:40 AM 64 °F 57 °F 73% 29.78 in 6 mi East 2.2 mph - -  
8:45 AM 60.8 °F 55.4 °F 82% 29.85 in 10.0 mi South 3.5 mph - N/A   Clear
9:40 AM 66.2 °F 53.6 °F 64% 30.04 in 10.0 mi Calm Calm - N/A   Clear
10:40 AM 69.8 °F 53.6 °F 56% 30.03 in 10.0 mi SSE 4.6 mph - N/A   Clear
11:40 AM 75 °F 58 °F 46% 29.72 in 6 mi South 4.5 mph - -   Scattered Clouds
11:40 AM 73.4 °F 55.4 °F 53% 29.81 in 10.0 mi SE 9.2 mph - N/A   Scattered Clouds
12:45 PM 75.2 °F 55.4 °F 50% 29.98 in 10.0 mi South 8.1 mph - N/A   Scattered Clouds
1:40 PM 77.0 °F 53.6 °F 44% 29.96 in 10.0 mi SSE 8.1 mph - N/A   Scattered Clouds
2:40 PM 78.8 °F 53.6 °F 42% 29.70 in 10.0 mi ESE 8.1 mph - N/A   Partly Cloudy
3:40 PM 78.8 °F 53.6 °F 42% 29.91 in 10.0 mi SSE 9.2 mph - N/A   Partly Cloudy
4:40 PM 78.8 °F 53.6 °F 42% 29.89 in 10.0 mi NE 4.6 mph - N/A   Partly Cloudy
5:40 PM 77.0 °F 55.4 °F 47% 29.67 in 10.0 mi East 6.9 mph - N/A   Clear
6:40 PM 71.6 °F 55.4 °F 57% 29.90 in 10.0 mi ESE 3.5 mph - N/A   Clear
7:40 PM 66.2 °F 55.4 °F 68% 29.90 in 10.0 mi East 3.5 mph - N/A   Clear
8:40 PM 66.2 °F 53.6 °F 64% 29.69 in 10.0 mi South 5.8 mph - N/A   Clear